Winston-Salem, NC

1:32 PM EDT on July 21, 2017 (GMT -0400)
Smith Reynolds

Weather History for KINT - March, 2014

Change the Weather History Date:

Tuesday, March 18, 2014

  Actual Average Record
Temperature  
Mean Temperature 34 °F -  
Max Temperature 41 °F 56 °F 82 °F (2011)
Min Temperature 28 °F 38 °F 14 °F (1967)
Degree Days  
Heating Degree Days 30    
Moisture  
Dew Point 31 °F    
Average Humidity 88    
Maximum Humidity 93    
Minimum Humidity 76    
Precipitation  
Precipitation 0.01 in - - ()
Sea Level Pressure  
Sea Level Pressure 30.08 in    
Wind  
Wind Speed 10 mph (NE)    
Max Wind Speed 15 mph    
Max Gust Speed 23 mph    
Visibility 8 miles    
Events Rain    
Averages and records for this station are not official NWS values.
T = Trace of Precipitation, MM = Missing Value Source: NWS Daily Summary

Daily Weather History Graph

Daily Weather History Graph

Search for Another Location

Airport or City:

Trip Planner

Search our weather history database for the weather conditions in past years. The results will help you decide how hot, cold, wet, or windy it might be!

Date:

Astronomy

Mar. 18, 2014 Rise Set
Actual Time 7:27 AM EDT 7:30 PM EDT
Civil Twilight 7:01 AM EDT 7:56 PM EDT
Nautical Twilight 6:31 AM EDT 8:26 PM EDT
Astronomical Twilight 6:01 AM EDT 8:56 PM EDT
Moon 9:41 PM EDT (3/18) 8:19 AM EDT (3/18)
Length of Visible Light 12h 54m
Length of Day
12h 03m
Waning Gibbous, 96% of the Moon is Illuminated
Mar 18
Waning Gibbous
Mar 23
Last Quarter
Mar 30
New
Apr 7
First Quarter
Apr 15
Full

Hourly Weather History & Observations

Time (EDT) Temp. Windchill Dew Point Humidity Pressure Visibility Wind Dir Wind Speed Gust Speed Precip Events Conditions
12:05 AM 28.0 °F 19.3 °F 25.0 °F 88% 30.00 in 9.0 mi NNE 9.2 mph - 0.01 in Rain Light Freezing Rain
12:28 AM 28.0 °F 18.6 °F 25.0 °F 88% 29.97 in 10.0 mi NE 10.4 mph - 0.01 in   Overcast
12:54 AM 28.0 °F 19.3 °F 26.1 °F 92% 30.03 in 10.0 mi NNE 9.2 mph 23.0 mph 0.01 in   Overcast
1:54 AM 28.0 °F 17.5 °F 25.0 °F 88% 30.01 in 10.0 mi NE 12.7 mph - 0.00 in   Overcast
2:54 AM 28.0 °F 19.3 °F 25.0 °F 88% 30.02 in 10.0 mi NE 9.2 mph - N/A   Overcast
3:46 AM 28.0 °F 18.1 °F 26.1 °F 92% 29.99 in 10.0 mi North 11.5 mph - N/A   Overcast
3:54 AM 28.0 °F 18.6 °F 26.1 °F 92% 30.00 in 10.0 mi NNE 10.4 mph - N/A   Overcast
4:54 AM 28.0 °F 18.1 °F 26.1 °F 92% 29.99 in 6.0 mi NE 11.5 mph - N/A   Overcast
5:54 AM 28.0 °F 18.6 °F 26.1 °F 92% 30.00 in 6.0 mi NE 10.4 mph - N/A   Overcast
6:54 AM 28.9 °F 17.7 °F 26.1 °F 89% 29.99 in 10.0 mi NNE 15.0 mph - N/A   Overcast
7:09 AM 28.9 °F 18.6 °F 26.1 °F 89% 29.98 in 10.0 mi NNE 12.7 mph - N/A   Overcast
7:54 AM 28.9 °F 21.1 °F 26.1 °F 89% 30.02 in 10.0 mi NNE 8.1 mph - N/A   Overcast
8:54 AM 28.9 °F 19.8 °F 27.0 °F 92% 30.01 in 3.0 mi NNE 10.4 mph - N/A   Overcast
9:34 AM 30.0 °F 20.5 °F 28.0 °F 92% 30.00 in 5.0 mi NNE 11.5 mph 18.4 mph N/A   Overcast
9:50 AM 30.2 °F 20.8 °F 28.4 °F 93% 30.02 in 5.0 mi NNE 11.5 mph - N/A   Overcast
9:54 AM 30.0 °F 19.5 °F 28.0 °F 92% 30.04 in 4.0 mi NNE 13.8 mph - N/A   Overcast
10:54 AM 30.9 °F 21.7 °F 28.9 °F 92% 30.07 in 4.0 mi NE 11.5 mph 20.7 mph N/A   Overcast
11:54 AM 32.0 °F 22.5 °F 30.0 °F 92% 30.11 in 10.0 mi NNE 12.7 mph - N/A   Overcast
12:54 PM 33.1 °F 25.5 °F 30.9 °F 92% 30.12 in 10.0 mi NNE 9.2 mph - N/A   Overcast
1:54 PM 36.0 °F 28.5 °F 32.0 °F 86% 30.13 in 10.0 mi NNE 10.4 mph 17.3 mph N/A   Overcast
2:44 PM 37.0 °F 29.8 °F 33.1 °F 86% 30.10 in 10.0 mi NNE 10.4 mph - N/A   Overcast
2:54 PM 37.9 °F 30.9 °F 33.1 °F 83% 30.12 in 10.0 mi NNE 10.4 mph - N/A   Overcast
3:54 PM 39.9 °F 34.5 °F 34.0 °F 79% 30.13 in 10.0 mi NNE 8.1 mph - N/A   Overcast
4:54 PM 41.0 °F 35.8 °F 35.1 °F 79% 30.11 in 10.0 mi ENE 8.1 mph - N/A   Overcast
5:54 PM 41.0 °F 35.8 °F 35.1 °F 79% 30.12 in 10.0 mi NNE 8.1 mph - N/A   Overcast
6:23 PM 41.0 °F 35.2 °F 34.0 °F 76% 30.10 in 10.0 mi NE 9.2 mph - N/A   Overcast
6:40 PM 41.0 °F 36.4 °F 34.0 °F 76% 30.11 in 10.0 mi ENE 6.9 mph - N/A   Overcast
6:54 PM 39.9 °F 35.1 °F 34.0 °F 79% 30.13 in 10.0 mi NNE 6.9 mph - N/A   Overcast
7:34 PM 39.9 °F 35.8 °F 35.1 °F 83% 30.12 in 8.0 mi NNE 5.8 mph - N/A   Overcast
7:54 PM 39.0 °F 34.0 °F 36.0 °F 89% 30.13 in 8.0 mi NNE 6.9 mph - N/A   Overcast
8:32 PM 39.0 °F 34.0 °F 36.0 °F 89% 30.13 in 9.0 mi NNE 6.9 mph - N/A   Overcast
8:54 PM 39.0 °F 34.8 °F 36.0 °F 89% 30.16 in 6.0 mi NE 5.8 mph - N/A   Overcast
9:45 PM 37.9 °F 32.1 °F 35.1 °F 89% 30.15 in 10.0 mi NE 8.1 mph - N/A   Overcast
9:54 PM 37.9 °F 30.9 °F 35.1 °F 89% 30.18 in 7.0 mi ENE 10.4 mph - N/A   Overcast
10:07 PM 37.9 °F 32.7 °F 35.1 °F 89% 30.16 in 5.0 mi ENE 6.9 mph - N/A   Overcast
10:54 PM 37.0 °F 31.6 °F 35.1 °F 93% 30.18 in 5.0 mi NE 6.9 mph - N/A   Overcast
11:54 PM 37.0 °F 31.0 °F 34.0 °F 89% 30.19 in 3.0 mi NE 8.1 mph - N/A   Overcast